This is the latest recevied weather packets stored in our database for station/object KC5EZZ-2. If no packets are shown the sender has not sent any weather packets the latest 1 day(s).
| Time | Temp. | Humidity | Pressure | Rain* | Wind** | Luminosity | Snow |
|---|---|---|---|---|---|---|---|
| 1778078044 | 12.78° C | - | - | 0 mm | 4.92 m/s, 335° | - | - |
| 1778077603 | 12.78° C | - | - | 0 mm | 4.02 m/s, 322° | - | - |
| 1778077001 | 12.22° C | - | - | 0 mm | 3.13 m/s, 314° | - | - |
| 1778076402 | 12.22° C | - | - | 0 mm | 4.02 m/s, 25° | - | - |
| 1778075800 | 11.67° C | - | - | 0 mm | 4.47 m/s, 350° | - | - |
| 1778075198 | 11.67° C | - | - | 0 mm | 4.47 m/s, 345° | - | - |
| 1778074599 | 11.67° C | - | - | 0 mm | 4.47 m/s, 354° | - | - |
| 1778073998 | 11.67° C | - | - | 0 mm | 4.02 m/s, 349° | - | - |
| 1778073395 | 11.67° C | - | - | 0 mm | 3.58 m/s, 359° | - | - |
| 1778072796 | 11.11° C | - | - | 0 mm | 5.36 m/s, 38° | - | - |
| 1778071293 | 11.67° C | - | - | 0 mm | 2.68 m/s, 10° | - | - |
| 1778070691 | 11.67° C | - | - | 0 mm | 3.58 m/s, 30° | - | - |
| 1778069790 | 12.22° C | - | - | 0 mm | 3.58 m/s, 41° | - | - |
| 1778069191 | 12.22° C | - | - | 0 mm | 4.02 m/s, 4° | - | - |
| 1778068290 | 12.78° C | - | - | 0 mm | 4.02 m/s, 335° | - | - |
| 1778067426 | 13.33° C | - | - | 0 mm | 4.02 m/s, 14° | - | - |
| 1778066486 | 13.89° C | - | - | 0 mm | 4.92 m/s, 4° | - | - |
| 1778065884 | 13.89° C | - | - | 0 mm | 5.81 m/s, 342° | - | - |
| 1778064983 | 14.44° C | - | - | 0 mm | 3.13 m/s, 27° | - | - |
| 1778064683 | 13.89° C | - | - | 0 mm | 3.58 m/s, 21° | - | - |
| 1778064381 | 13.89° C | - | - | 0 mm | 3.13 m/s, 10° | - | - |
| 1778063782 | 14.44° C | - | - | 0 mm | 3.58 m/s, 20° | - | - |
| 1778062578 | 14.44° C | - | - | 0 mm | 3.58 m/s, 28° | - | - |
| 1778062279 | 15° C | - | - | 0 mm | 3.13 m/s, 350° | - | - |
| 1778061677 | 14.44° C | - | - | 0 mm | 3.58 m/s, 352° | - | - |
* Rain latest hour (hover to see other rain measurements)
** Current wind speed in m/s (hover to see current wind gust speed)